{"data":{"norad_id":63582,"epoch":"2026-05-24T23:56:01.871232Z","epoch_age_seconds":79210,"freshness":"FRESH","line1":"1 63582U 25076P   26144.99724388  .00022519  00000+0  82515-3 0  9993","line2":"2 63582  42.9987 250.4891 0001253 281.1878  78.8832 15.27587208 63505","mean_motion":15.27587208,"eccentricity":0.0001253,"inclination_deg":42.9987,"raan_deg":250.4891,"arg_perigee_deg":281.1878,"mean_anomaly_deg":78.8832,"bstar":0.00082515,"rev_number":6350,"period_min":94.266303911076,"perigee_km":482.16780886601,"apogee_km":483.88721669291,"semimajor_km":6861.1645127795,"source":"CELESTRAK","updated_at":"2026-05-25T13:38:20.048242Z"}}